Location: Unspecified
(49.2170°N, 0.0000°E)
Time: 16:01:52
(UTC+00:00)

A-11 Canister half - Pass Details

Date: 18 June 2019
Orbit: 1526 x 1683 km, 47.3° (Epoch: 21 July)

Event Time Altitude Azimuth Distance (km) Brightness Sun altitude
Rises 10:23:34 0° 283° (WNW) 4,682 11.3 57.9°
Reaches altitude 10° 10:26:38 10° 281° (W) 3,696 10.9 58.2°
Maximum altitude 10:35:44 62° 203° (SSW) 1,691 10.5 59.2°
Drops below altitude 10° 10:44:57 10° 126° (SE) 3,740 11.7 60.2°
Sets 10:48:05 0° 123° (ESE) 4,741 12.0 60.5°
